Regional Weather Roundup
Issued by NWS

Home | Current Version | Previous Version | Graphics & Text | Print | Product List | Glossary On
Versions: 1 2 3 4 5 6 7 8 9 10 11 12 13 14 15 16 17 18 19 20 21 22 23 24 25 26 27 28 29 30 31 32 33 34 35 36 37 38 39 40 41 42 43 44 45 46 47 48 49 50
000
ASUS43 KFSD 180610
RWRSD

WEATHER ROUNDUP FOR SOUTH DAKOTA
NATIONAL WEATHER SERVICE SIOUX FALLS SD
1200 AM CST THU DEC 18 2014

NOTE: "FAIR" INDICATES FEW OR NO CLOUDS BELOW 12,000 FEET WITH NO
SIGNIFICANT WEATHER AND/OR OBSTRUCTIONS TO VISIBILITY.


SDZ001>005-009-010-012>017-180700-
NORTHWEST AND NORTH CENTRAL SOUTH DAKOTA

CITY           SKY/WX    TMP DP  RH WIND       PRES   REMARKS
BUFFALO          N/A     22  19  89 S10       29.92S WCI  11
FAITH            N/A     20  15  81 SE9       30.06R WCI   9
MOBRIDGE       CLOUDY    18  13  80 SE12      30.14S WCI   5
$$

SDZ012>016-024>037-041>051-057-063-072>074-180700-
SOUTHWEST AND SOUTH CENTRAL SOUTH DAKOTA

CITY           SKY/WX    TMP DP  RH WIND       PRES   REMARKS
RAPID CTY ARPT CLOUDY    22  20  92 SE6       30.01R WCI  14
PIERRE         CLOUDY    18  16  92 SE13      30.16S WCI   5
CUSTER         CLEAR     25  16  68 CALM      29.90R
ELLSWORTH AFB  CLOUDY    22  21  94 SE6       30.00  WCI  15
PHILIP         CLOUDY    22  19  89 E8        30.08F WCI  12
PINE RIDGE     CLOUDY    19  16  88 SW8       30.03S WCI   9
SPEARFISH      FAIR      12  10  92 SE3       29.95S FOG
WINNER         CLOUDY    22  19  89 SE9       30.15R WCI  12
$$

SDZ004>011-016>023-039-040-180700-
NORTHEAST SOUTH DAKOTA

CITY           SKY/WX    TMP DP  RH WIND       PRES   REMARKS
ABERDEEN       PTCLDY    13   9  84 SE6       30.26S WCI   4
WATERTOWN      CLOUDY     6   2  83 CALM      30.23S
SISSETON         N/A      1  -2  87 CALM      30.29R
$$

SDZ017-020-022-023-036>040-048>070-180700-
SOUTHEAST SOUTH DAKOTA

CITY           SKY/WX    TMP DP  RH WIND       PRES   REMARKS
SIOUX FALLS    CLOUDY    13  10  88 CALM      30.26S
HURON          CLOUDY    13  10  88 S8        30.26R WCI   2
CHAMBERLAIN    CLOUDY    17  14  90 SE9       30.20S WCI   5
MITCHELL       CLOUDY    16  12  84 SE7       30.27S WCI   6
YANKTON        CLOUDY    18  12  79 CALM      30.28S
$$

ABBREVIATIONS USED IN REMARKS
   TC - TEMPERATURE IN CELSIUS
  WCI - WIND CHILL INDEX
   HX - HEAT INDEX
  VSB - VISIBILITY




USA.gov is the U.S. government's official web portal to all federal, state and local government web resources and services.